| time (UTC) | temp F | wind direction | speed MPH | gust MPH | rain 1hr in | rain 24hr in | rain mn in | humidity % | barometer mb |
| 20260505001525 | 47 | 4 | 5.0 | 15.0 | 0.00 | 0.00 | 0.00 | 44 | 1004.9 |
| 20260505001024 | 47 | 339 | 4.0 | 19.0 | 0.00 | 0.00 | 0.00 | 45 | 1004.8 |
| 20260505000524 | 47 | 337 | 6.0 | 19.0 | 0.00 | 0.00 | 0.00 | 44 | 1004.8 |
| 20260505000023 | 47 | 351 | 4.0 | 14.0 | 0.00 | 0.00 | 0.00 | 46 | 1004.8 |
| 20260504235523 | 47 | 316 | 4.0 | 18.0 | 0.00 | 0.00 | 0.00 | 47 | 1004.8 |
| 20260504235023 | 47 | 312 | 4.0 | 21.0 | 0.00 | 0.00 | 0.00 | 46 | 1004.7 |
| 20260504234520 | 48 | 9 | 10.0 | 21.0 | 0.00 | 0.00 | 0.00 | 45 | 1004.7 |
| 20260504234019 | 48 | 287 | 7.0 | 23.0 | 0.00 | 0.00 | 0.00 | 45 | 1004.5 |
| 20260504233519 | 49 | 295 | 10.0 | 23.0 | 0.00 | 0.00 | 0.00 | 44 | 1004.6 |
| 20260504233018 | 49 | 14 | 6.0 | 20.0 | 0.00 | 0.00 | 0.00 | 45 | 1004.5 |
| 20260504232516 | 49 | 333 | 9.0 | 20.0 | 0.00 | 0.00 | 0.00 | 44 | 1004.3 |
| 20260504232015 | 49 | 20 | 9.0 | 16.0 | 0.00 | 0.00 | 0.00 | 44 | 1004.1 |
| 20260504231515 | 49 | 12 | 7.0 | 18.0 | 0.00 | 0.00 | 0.00 | 44 | 1004.2 |
| 20260504231015 | 49 | 339 | 8.0 | 19.0 | 0.00 | 0.00 | 0.00 | 44 | 1004.1 |
| 20260504230512 | 50 | 18 | 8.0 | 15.0 | 0.00 | 0.00 | 0.00 | 43 | 1004.0 |
| 20260504230012 | 50 | 312 | 8.0 | 0.0 | 0.00 | 0.00 | 0.00 | 43 | 1003.9 |
| 20260504225512 | 50 | 298 | 11.0 | 22.0 | 0.00 | 0.00 | 0.00 | 42 | 1003.9 |
| 20260504225011 | 50 | 335 | 7.0 | 20.0 | 0.00 | 0.00 | 0.00 | 42 | 1003.8 |
| 20260504224510 | 50 | 307 | 6.0 | 20.0 | 0.00 | 0.00 | 0.00 | 43 | 1003.6 |
| 20260504224009 | 50 | 25 | 6.0 | 16.0 | 0.00 | 0.00 | 0.00 | 42 | 1003.6 |
| 20260504223508 | 50 | 349 | 8.0 | 19.0 | 0.00 | 0.00 | 0.00 | 41 | 1003.5 |
| 20260504223007 | 50 | 333 | 10.0 | 19.0 | 0.00 | 0.00 | 0.00 | 41 | 1003.4 |
| 20260504222506 | 51 | 343 | 7.0 | 14.0 | 0.00 | 0.00 | 0.00 | 42 | 1003.3 |
| 20260504222106 | 51 | 276 | 6.0 | 16.0 | 0.00 | 0.00 | 0.00 | 41 | 1003.2 |
| 20260504221504 | 52 | 311 | 6.0 | 19.0 | 0.00 | 0.00 | 0.00 | 42 | 1003.0 |
| 20260504221004 | 51 | 30 | 5.0 | 19.0 | 0.00 | 0.00 | 0.00 | 43 | 1003.0 |
| 20260504220505 | 51 | 311 | 9.0 | 19.0 | 0.00 | 0.00 | 0.00 | 42 | 1003.0 |
| 20260504220003 | 51 | 253 | 6.0 | 24.0 | 0.00 | 0.00 | 0.00 | 43 | 1003.0 |
| 20260504215503 | 52 | 343 | 8.0 | 21.0 | 0.00 | 0.00 | 0.00 | 40 | 1003.0 |
| 20260504215003 | 51 | 4 | 6.0 | 17.0 | 0.00 | 0.00 | 0.00 | 42 | 1002.9 |
| 20260504214502 | 51 | 349 | 5.0 | 17.0 | 0.00 | 0.00 | 0.00 | 42 | 1002.8 |
| 20260504214001 | 52 | 25 | 7.0 | 17.0 | 0.00 | 0.00 | 0.00 | 42 | 1002.9 |
| 20260504213601 | 52 | 318 | 6.0 | 20.0 | 0.00 | 0.00 | 0.00 | 44 | 1002.7 |
| 20260504213126 | 52 | 255 | 6.0 | 22.0 | 0.00 | 0.00 | 0.00 | 43 | 1002.7 |
| 20260504212602 | 52 | 341 | 9.0 | 22.0 | 0.00 | 0.00 | 0.00 | 43 | 1002.6 |
| 20260504212059 | 52 | 345 | 8.0 | 20.0 | 0.00 | 0.00 | 0.00 | 44 | 1002.5 |
| 20260504211557 | 52 | 315 | 7.0 | 22.0 | 0.00 | 0.00 | 0.00 | 45 | 1002.5 |
| 20260504211056 | 52 | 335 | 9.0 | 22.0 | 0.00 | 0.00 | 0.00 | 44 | 1002.5 |
| 20260504210556 | 52 | 357 | 10.0 | 18.0 | 0.00 | 0.00 | 0.00 | 44 | 1002.3 |
| 20260504210100 | 53 | 337 | 9.0 | 19.0 | 0.00 | 0.00 | 0.00 | 43 | 1002.3 |
| 20260504205553 | 53 | 309 | 8.0 | 19.0 | 0.00 | 0.00 | 0.00 | 45 | 1002.3 |
| 20260504205054 | 53 | 297 | 7.0 | 18.0 | 0.00 | 0.00 | 0.00 | 42 | 1002.2 |
| 20260504204603 | 54 | 355 | 8.0 | 20.0 | 0.00 | 0.00 | 0.00 | 43 | 1002.1 |
| 20260504204052 | 53 | 292 | 8.0 | 20.0 | 0.00 | 0.00 | 0.00 | 44 | 1002.0 |
| 20260504203554 | 53 | 267 | 11.0 | 20.0 | 0.00 | 0.00 | 0.00 | 43 | 1002.0 |
| 20260504203052 | 53 | 350 | 7.0 | 18.0 | 0.00 | 0.00 | 0.00 | 45 | 1001.9 |
| 20260504202552 | 53 | 345 | 7.0 | 18.0 | 0.00 | 0.00 | 0.00 | 45 | 1002.0 |
| 20260504202052 | 53 | 332 | 5.0 | 18.0 | 0.00 | 0.00 | 0.00 | 45 | 1001.9 |
| 20260504201550 | 53 | 334 | 10.0 | 17.0 | 0.00 | 0.00 | 0.00 | 44 | 1001.9 |
| 20260504201049 | 54 | 343 | 7.0 | 17.0 | 0.00 | 0.00 | 0.00 | 43 | 1001.8 |
| 20260504200551 | 54 | 25 | 7.0 | 16.0 | 0.00 | 0.00 | 0.00 | 43 | 1001.8 |
| 20260504200053 | 54 | 318 | 7.0 | 18.0 | 0.00 | 0.00 | 0.00 | 45 | 1001.7 |
| 20260504195548 | 54 | 292 | 9.0 | 20.0 | 0.00 | 0.00 | 0.00 | 44 | 1001.6 |
| 20260504195048 | 54 | 314 | 10.0 | 21.0 | 0.00 | 0.00 | 0.00 | 42 | 1001.6 |
| 20260504194547 | 54 | 338 | 10.0 | 21.0 | 0.00 | 0.00 | 0.00 | 42 | 1001.5 |
| 20260504194046 | 55 | 20 | 8.0 | 22.0 | 0.00 | 0.00 | 0.00 | 43 | 1001.5 |
| 20260504193548 | 54 | 307 | 9.0 | 23.0 | 0.00 | 0.00 | 0.00 | 44 | 1001.5 |
| 20260504193045 | 54 | 312 | 9.0 | 22.0 | 0.00 | 0.00 | 0.00 | 42 | 1001.3 |
| 20260504192545 | 55 | 345 | 8.0 | 20.0 | 0.00 | 0.00 | 0.00 | 43 | 1001.3 |
| 20260504192044 | 55 | 311 | 8.0 | 20.0 | 0.00 | 0.00 | 0.00 | 43 | 1001.3 |
| 20260504191543 | 55 | 5 | 4.0 | 26.0 | 0.00 | 0.00 | 0.00 | 44 | 1001.1 |
| 20260504191043 | 55 | 300 | 10.0 | 26.0 | 0.00 | 0.00 | 0.00 | 43 | 1000.9 |
| 20260504190542 | 55 | 14 | 8.0 | 21.0 | 0.00 | 0.00 | 0.00 | 43 | 1000.8 |
| 20260504190041 | 56 | 347 | 8.0 | 26.0 | 0.00 | 0.00 | 0.00 | 44 | 1000.9 |
| 20260504185541 | 55 | 333 | 9.0 | 26.0 | 0.00 | 0.00 | 0.00 | 44 | 1000.8 |
| 20260504185041 | 55 | 325 | 10.0 | 24.0 | 0.00 | 0.00 | 0.00 | 43 | 1000.8 |
| 20260504184539 | 55 | 354 | 9.0 | 18.0 | 0.00 | 0.00 | 0.00 | 43 | 1000.6 |
| 20260504184039 | 56 | 4 | 6.0 | 18.0 | 0.00 | 0.00 | 0.00 | 44 | 1000.6 |
| 20260504183539 | 56 | 314 | 7.0 | 25.0 | 0.00 | 0.00 | 0.00 | 46 | 1000.4 |
| 20260504183038 | 55 | 278 | 8.0 | 25.0 | 0.00 | 0.00 | 0.00 | 44 | 1000.5 |
| 20260504182538 | 56 | 314 | 11.0 | 21.0 | 0.00 | 0.00 | 0.00 | 45 | 1000.3 |
| 20260504182037 | 55 | 311 | 9.0 | 21.0 | 0.00 | 0.00 | 0.00 | 46 | 1000.3 |
| 20260504181542 | 56 | 313 | 10.0 | 19.0 | 0.00 | 0.00 | 0.00 | 45 | 1000.3 |
| 20260504181037 | 56 | 297 | 8.0 | 21.0 | 0.00 | 0.00 | 0.00 | 45 | 1000.1 |
| 20260504180540 | 56 | 349 | 8.0 | 21.0 | 0.00 | 0.00 | 0.00 | 45 | 1000.0 |
| 20260504180036 | 57 | 355 | 9.0 | 17.0 | 0.00 | 0.00 | 0.00 | 47 | 1000.0 |
| 20260504175539 | 56 | 295 | 5.0 | 19.0 | 0.00 | 0.00 | 0.00 | 48 | 1000.0 |
| 20260504175038 | 56 | 9 | 7.0 | 19.0 | 0.00 | 0.00 | 0.00 | 46 | 1000.0 |
| 20260504174536 | 56 | 349 | 7.0 | 14.0 | 0.00 | 0.00 | 0.00 | 45 | 999.9 |
| 20260504174036 | 56 | 8 | 5.0 | 15.0 | 0.00 | 0.00 | 0.00 | 47 | 999.9 |
| 20260504173538 | 56 | 355 | 7.0 | 25.0 | 0.00 | 0.00 | 0.00 | 45 | 999.8 |
| 20260504173036 | 56 | 307 | 7.0 | 25.0 | 0.00 | 0.00 | 0.00 | 47 | 999.6 |
| 20260504172535 | 55 | 320 | 9.0 | 22.0 | 0.00 | 0.00 | 0.00 | 46 | 999.5 |
| 20260504172035 | 55 | 278 | 11.0 | 22.0 | 0.00 | 0.00 | 0.00 | 45 | 999.5 |
| 20260504171534 | 55 | 269 | 9.0 | 24.0 | 0.00 | 0.00 | 0.00 | 45 | 999.6 |
| 20260504171035 | 55 | 285 | 11.0 | 24.0 | 0.00 | 0.00 | 0.00 | 44 | 999.7 |
| 20260504170534 | 55 | 347 | 5.0 | 16.0 | 0.00 | 0.00 | 0.00 | 46 | 999.7 |
| 20260504151028 | 56 | 262 | 11.0 | 22.0 | 0.00 | 0.00 | 0.00 | 54 | 998.3 |
| 20260504150531 | 55 | 304 | 9.0 | 26.0 | 0.00 | 0.00 | 0.00 | 53 | 998.3 |
| 20260504141025 | 55 | 278 | 8.0 | 22.0 | 0.00 | 0.00 | 0.00 | 54 | 998.1 |
| 20260504140525 | 55 | 298 | 11.0 | 21.0 | 0.00 | 0.00 | 0.00 | 53 | 998.0 |
| 20260504130520 | 54 | 20 | 7.0 | 17.0 | 0.00 | 0.00 | 0.00 | 52 | 997.8 |
| 20260504110511 | 57 | 285 | 15.0 | 26.0 | 0.00 | 0.00 | 0.00 | 48 | 995.1 |
| 20260504100545 | 56 | 264 | 10.0 | 17.0 | 0.00 | 0.00 | 0.00 | 46 | 995.2 |
| 20260504081541 | 53 | 252 | 7.0 | 12.0 | 0.00 | 0.00 | 0.00 | 45 | 996.7 |
| 20260504081026 | 53 | 257 | 7.0 | 12.0 | 0.00 | 0.00 | 0.00 | 45 | 996.6 |
| 20260504080526 | 53 | 242 | 6.0 | 11.0 | 0.00 | 0.00 | 0.00 | 46 | 996.7 |
| 20260504050553 | 53 | 259 | 6.0 | 10.0 | 0.00 | 0.00 | 0.00 | 49 | 1000.4 |
| 20260504045550 | 53 | 233 | 6.0 | 9.0 | 0.00 | 0.00 | 0.00 | 49 | 1000.7 |
| 20260504045051 | 53 | 246 | 6.0 | 9.0 | 0.00 | 0.00 | 0.00 | 49 | 1000.8 |
| 20260504044549 | 53 | 245 | 5.0 | 8.0 | 0.00 | 0.00 | 0.00 | 49 | 1000.9 |
| 20260504044048 | 53 | 240 | 5.0 | 7.0 | 0.00 | 0.00 | 0.00 | 48 | 1000.9 |
| 20260504043548 | 53 | 240 | 5.0 | 7.0 | 0.00 | 0.00 | 0.00 | 48 | 1001.1 |
| 20260504043054 | 53 | 246 | 4.0 | 6.0 | 0.00 | 0.00 | 0.00 | 48 | 1001.3 |
| 20260504042548 | 54 | 238 | 4.0 | 6.0 | 0.00 | 0.00 | 0.00 | 48 | 1001.5 |
| 20260504042044 | 54 | 248 | 3.0 | 6.0 | 0.00 | 0.00 | 0.00 | 47 | 1001.5 |
| 20260504041544 | 54 | 243 | 3.0 | 4.0 | 0.00 | 0.00 | 0.00 | 47 | 1001.7 |
| 20260504041043 | 54 | 245 | 3.0 | 5.0 | 0.00 | 0.00 | 0.00 | 47 | 1001.7 |
| 20260504040542 | 54 | 256 | 3.0 | 5.0 | 0.00 | 0.00 | 0.00 | 47 | 1001.8 |
| 20260504040041 | 54 | 238 | 3.0 | 5.0 | 0.00 | 0.00 | 0.00 | 47 | 1002.0 |
| 20260504035540 | 54 | 243 | 2.0 | 5.0 | 0.00 | 0.00 | 0.00 | 47 | 1002.1 |
| 20260504035040 | 55 | 252 | 2.0 | 4.0 | 0.00 | 0.00 | 0.00 | 46 | 1002.2 |
| 20260504034539 | 55 | 246 | 2.0 | 4.0 | 0.00 | 0.00 | 0.00 | 45 | 1002.2 |
| 20260504034038 | 56 | 239 | 2.0 | 5.0 | 0.00 | 0.00 | 0.00 | 44 | 1002.4 |
| 20260504033537 | 56 | 267 | 2.0 | 5.0 | 0.00 | 0.00 | 0.00 | 43 | 1002.4 |
| 20260504033036 | 56 | 240 | 2.0 | 4.0 | 0.00 | 0.00 | 0.00 | 43 | 1002.5 |
| 20260504032536 | 56 | 233 | 2.0 | 4.0 | 0.00 | 0.00 | 0.00 | 42 | 1002.7 |
| 20260504032036 | 57 | 246 | 1.0 | 3.0 | 0.00 | 0.00 | 0.00 | 42 | 1002.8 |
| 20260504031535 | 57 | 239 | 1.0 | 3.0 | 0.00 | 0.00 | 0.00 | 41 | 1002.9 |
| 20260504031033 | 57 | 245 | 2.0 | 3.0 | 0.00 | 0.00 | 0.00 | 41 | 1003.0 |
| 20260504030533 | 57 | 259 | 1.0 | 3.0 | 0.00 | 0.00 | 0.00 | 41 | 1003.1 |
| 20260504030033 | 57 | 245 | 2.0 | 3.0 | 0.00 | 0.00 | 0.00 | 41 | 1003.2 |
| 20260504025533 | 57 | 240 | 1.0 | 3.0 | 0.00 | 0.00 | 0.00 | 40 | 1003.1 |
| 20260504025034 | 58 | 252 | 0.0 | 3.0 | 0.00 | 0.00 | 0.00 | 40 | 1003.1 |
| 20260504024535 | 58 | 253 | 1.0 | 3.0 | 0.00 | 0.00 | 0.00 | 40 | 1003.2 |
| 20260504024033 | 58 | 258 | 0.0 | 3.0 | 0.00 | 0.00 | 0.00 | 40 | 1003.2 |
| 20260504023531 | 58 | 275 | 0.0 | 3.0 | 0.00 | 0.00 | 0.00 | 39 | 1003.2 |
| 20260504023034 | 58 | 254 | 0.0 | 2.0 | 0.00 | 0.00 | 0.00 | 39 | 1003.2 |
| 20260504022533 | 59 | 249 | 1.0 | 2.0 | 0.00 | 0.00 | 0.00 | 39 | 1003.3 |
| 20260504022031 | 59 | 266 | 0.0 | 2.0 | 0.00 | 0.00 | 0.00 | 38 | 1003.2 |
| 20260504021530 | 59 | 262 | 0.0 | 1.0 | 0.00 | 0.00 | 0.00 | 38 | 1003.3 |
| 20260504021030 | 59 | 263 | 0.0 | 1.0 | 0.00 | 0.00 | 0.00 | 38 | 1003.3 |
| 20260504020529 | 59 | 261 | 0.0 | 2.0 | 0.00 | 0.00 | 0.00 | 38 | 1003.3 |
| 20260504020028 | 60 | 269 | 0.0 | 2.0 | 0.00 | 0.00 | 0.00 | 38 | 1003.3 |
| 20260504015529 | 60 | 277 | 0.0 | 2.0 | 0.00 | 0.00 | 0.00 | 37 | 1003.4 |
| 20260504015029 | 60 | 257 | 0.0 | 2.0 | 0.00 | 0.00 | 0.00 | 37 | 1003.4 |
| 20260504014537 | 60 | 252 | 1.0 | 2.0 | 0.00 | 0.00 | 0.00 | 37 | 1003.4 |
| 20260504014028 | 61 | 262 | 1.0 | 2.0 | 0.00 | 0.00 | 0.00 | 38 | 1003.5 |
| 20260504013526 | 61 | 278 | 1.0 | 2.0 | 0.00 | 0.00 | 0.00 | 40 | 1003.6 |
| 20260504013035 | 61 | 288 | 1.0 | 3.0 | 0.00 | 0.00 | 0.00 | 38 | 1003.6 |
| 20260504012526 | 62 | 280 | 1.0 | 4.0 | 0.00 | 0.00 | 0.00 | 43 | 1003.7 |
| 20260504012026 | 62 | 283 | 3.0 | 5.0 | 0.00 | 0.00 | 0.00 | 39 | 1003.6 |
| 20260504011526 | 63 | 283 | 3.0 | 7.0 | 0.00 | 0.00 | 0.00 | 38 | 1003.6 |
| 20260504011024 | 63 | 281 | 4.0 | 8.0 | 0.00 | 0.00 | 0.00 | 40 | 1003.7 |
| 20260504010524 | 64 | 290 | 6.0 | 10.0 | 0.00 | 0.00 | 0.00 | 35 | 1003.8 |
| 20260504010023 | 64 | 288 | 6.0 | 12.0 | 0.00 | 0.00 | 0.00 | 34 | 1003.8 |
| 20260504005523 | 65 | 290 | 8.0 | 12.0 | 0.00 | 0.00 | 0.00 | 32 | 1003.8 |
| 20260504005023 | 65 | 285 | 9.0 | 12.0 | 0.00 | 0.00 | 0.00 | 33 | 1003.9 |
| 20260504004527 | 66 | 271 | 8.0 | 14.0 | 0.00 | 0.00 | 0.00 | 33 | 1003.9 |
| 20260504004022 | 66 | 290 | 8.0 | 14.0 | 0.00 | 0.00 | 0.00 | 33 | 1003.9 |
| 20260504003522 | 66 | 284 | 10.0 | 14.0 | 0.00 | 0.00 | 0.00 | 31 | 1003.9 |
| 20260504003021 | 66 | 283 | 7.0 | 12.0 | 0.00 | 0.00 | 0.00 | 30 | 1004.0 |
| 20260504002523 | 66 | 287 | 8.0 | 13.0 | 0.00 | 0.00 | 0.00 | 29 | 1004.0 |
| 20260504002021 | 66 | 248 | 9.0 | 17.0 | 0.00 | 0.00 | 0.00 | 28 | 1004.1 |